Lawrenceville, GA

10:50 AM EST on December 14, 2019 (GMT -0500)
Gwinnett County-Briscoe

Weather History for KLZU - September, 2019

Change the Weather History Date:

Friday, September 27, 2019

  Actual Average (WUND) Record (WUND)
Temperature  
Mean Temperature 81 °F -  
Max Temperature 93 °F - - (-1)
Min Temperature 69 °F - - (-1)
Cooling Degree Days 16    
Growing Degree Days 31 (Base 50)    
Moisture  
Dew Point 67 °F    
Average Humidity 65    
Maximum Humidity 93    
Minimum Humidity 40    
Precipitation  
Precipitation 0.00 in - - ()
Sea Level Pressure  
Sea Level Pressure 30.00 in    
Wind  
Wind Speed 3 mph (ENE)    
Max Wind Speed 10 mph    
Max Gust Speed -    
Visibility 10 miles    
Events      
Averages and records for this station are not official NWS values.
T = Trace of Precipitation, MM = Missing Value Source: NWS Daily Summary

Daily Weather History Graph

Daily Weather History Graph

Search for Another Location

Airport or City:

Astronomy

Sep. 27, 2019 Rise Set
Actual Time 7:27 AM EDT 7:25 PM EDT
Civil Twilight 7:02 AM EDT 7:50 PM EDT
Nautical Twilight 6:33 AM EDT 8:19 PM EDT
Astronomical Twilight 6:04 AM EDT 8:49 PM EDT
Moon 5:55 AM EDT (9/27) 7:10 PM EDT (9/27)
Length of Visible Light 12h 48m
Length of Day
11h 58m
Waning Crescent, 2% of the Moon is Illuminated
Sep 27
Waning Crescent
Sep 28
New
Oct 5
First Quarter
Oct 13
Full
Oct 21
Last Quarter

Hourly Weather History & Observations

Time (EDT) Temp. Heat Index Dew Point Humidity Pressure Visibility Wind Dir Wind Speed Gust Speed Precip Events Conditions
12:56 AM 71.1 °F - 66.9 °F 87% 29.96 in 10.0 mi Calm Calm - N/A   Clear
1:56 AM 72.0 °F - 66.9 °F 84% 29.96 in 10.0 mi Calm Calm - N/A   Clear
2:56 AM 71.1 °F - 66.9 °F 87% 29.96 in 10.0 mi Calm Calm - N/A   Clear
3:56 AM 69.1 °F - 66.9 °F 93% 29.96 in 10.0 mi Calm Calm - N/A   Clear
5:56 AM 69.1 °F - 66.9 °F 93% 29.99 in 10.0 mi Calm Calm - N/A   Clear
6:56 AM 70.0 °F - 66.9 °F 90% 30.00 in 10.0 mi Calm Calm - N/A   Clear
7:56 AM 72.0 °F - 66.9 °F 84% 30.03 in 10.0 mi Calm Calm - N/A   Clear
8:56 AM 75.9 °F - 68.0 °F 76% 30.04 in 10.0 mi ENE 5.8 mph - N/A   Clear
9:56 AM 81.0 °F 83.8 °F 68.0 °F 65% 30.06 in 10.0 mi ENE 9.2 mph - N/A   Clear
10:56 AM 84.0 °F 87.0 °F 68.0 °F 58% 30.06 in 10.0 mi Variable 5.8 mph - N/A   Clear
11:56 AM 87.1 °F 90.6 °F 68.0 °F 53% 30.05 in 10.0 mi ENE 6.9 mph - N/A   Clear
12:56 PM 90.0 °F 92.8 °F 66.9 °F 46% 30.04 in 10.0 mi Variable 3.5 mph - N/A   Clear
1:56 PM 91.9 °F 95.4 °F 66.9 °F 44% 30.02 in 10.0 mi East 8.1 mph - N/A   Clear
2:56 PM 93.9 °F 97.5 °F 66.9 °F 41% 29.99 in 7.0 mi East 8.1 mph - N/A   Scattered Clouds
3:56 PM 91.9 °F 94.5 °F 66.0 °F 42% 29.97 in 7.0 mi Variable 4.6 mph - N/A   Scattered Clouds
4:56 PM 93.9 °F 97.0 °F 66.0 °F 40% 29.96 in 8.0 mi East 10.4 mph - N/A   Clear
5:56 PM 91.9 °F 94.1 °F 64.9 °F 41% 29.96 in 8.0 mi East 8.1 mph - N/A   Clear
6:56 PM 89.1 °F 91.3 °F 66.0 °F 46% 29.98 in 10.0 mi ENE 4.6 mph - N/A   Scattered Clouds
7:56 PM 84.0 °F 87.0 °F 68.0 °F 58% 29.99 in 10.0 mi ENE 3.5 mph - N/A   Partly Cloudy
8:56 PM 82.0 °F 85.5 °F 69.1 °F 65% 30.00 in 10.0 mi Calm Calm - N/A   Overcast
9:01 PM 82.4 °F 86.3 °F 69.8 °F 66% 30.01 in 10.0 mi Calm Calm - N/A   Overcast
9:56 PM 81.0 °F 84.1 °F 69.1 °F 67% 30.01 in 10.0 mi NE 4.6 mph - N/A   Partly Cloudy
10:56 PM 81.0 °F 83.8 °F 68.0 °F 65% 30.03 in 10.0 mi North - - N/A   Partly Cloudy
11:56 PM 80.1 °F 82.7 °F 68.0 °F 67% 30.05 in 10.0 mi North - - N/A   Clear